Location: Saratoga Springs
(43.0831°N, 73.7850°W)
Time: 20:54:55
(UTC-04:00)

Transit 2A Rocket - Pass Details

Date: 22 April 2024
Orbit: 584 x 909 km, 66.7° (Epoch: 24 May)

Event Time Altitude Azimuth Distance (km) Brightness Sun altitude
Rises 21:27:57 0° 322° (NW) 3,345 9.8 -17.2°
Reaches altitude 10° 21:30:26 10° 316° (NW) 2,454 8.9 -17.5°
Maximum altitude 21:35:47 42° 247° (WSW) 1,227 6.2 -18.3°
Enters shadow 21:40:22 15° 182° (S) 2,223 7.0 -18.9°
